Probability
0 0 0 0 0 0 0 0 0 0 0 0 0 0 0 0 0 0 0 0 0 0 0 0 0 0 0 0 0 0 0 0 0 0 0 0 0 0 0 0 0 0 0
0 0 0 0 0 0 0 0 0 0 0 0 0 0 0 0 0 0 0 0 0 0 0 0 0 0 0 0 0 0 0 0 0 0 0 0 0 0 0 0 0 0 0
0 0 0 0 0 0 0 0 0 0 0 0 0 0 0 0 0 0 0 0 0 0 0 0 0 0 0 0 0 0 0 0 0 0 0 0 0 0 0 0 0 0 0
0 0 0 0 0 0 0 0 0 0 0 0 0 0 0 0 0 0 0 0 0 0 0 0 0 0 0 0 0 0 0 0 0 0 0 0 0 0 0 0 0 0 0
0 0 0 0 0 0 0 0 0 0 0 0 0 0 0 0 0 0 0 0 0 0 0 0 0 0 0 0 0 0 0 0 0 0 0 0 0 0 0 0 0 0 0
0 0 0 0 0 0 0 0 0 0 0 0 0 0 0 0 0 0 0 0 0 0 0 0 0 0 0 0 0 0 0 0 0 0 0 0 0 0 0 0 0 0 0
0 0 0 0 0 0 0 0 0 0 0 0 0 0 0 0 0 0 0 0 0 0 0 0 0 0 0 0 0 0 0 0 0 0 0 0 0 0 0 0 0 0 0
0 0 0 0 0 0 0 0 0 0 0 0 0 0 0 0 0 0 0 0 0 0 0 0 0 0 0 0 0 0 0 0 0 0 0 0 0 0 0 0 0 0 0
0 0 0 0 0 0 0 0 0 0 0 0 0 0 0 0 0 0 0 0 0 0 0 0 0 0 0 0 0 0 0 0 0 0 0 0 0 0 0 0 0 0 0
0 0 0 0 0 0 0 0 0 0 0 0 0 0 0 0 0 0 0 0 0 0 0 0 0 0 0 0 0 0 0 0 0 0 0 0 0 0 0 0 0 0 0
0 0 0 0 0 0 0 0 0 0 0 0 0 0 0 0 0 0 0 0 0 0 0 0 0 0 0 0 0 0 0 0 0 0 0 0 0 0 0 0 0 0 0
0 0 0 0 0 0 0 0 0 0 0 0 0 0 0 0 0 0 0 0 0 0 0 0 0 0 0 0 0 0 0 0 0 0 0 0 0 0 0 0 0 0 0
0 0 0 0 0 0 0 0 0 0 0 0 0 0 0 0 0 0 0 0 0 0 0 0 0 0 0 0 0 0 0 0 0 0 0 0 0 0 0 0 0 0 0
0 0 0 0 0 0 0 0 0 0 0 0 0 0 0 0 0 0 0 0 0 0 0 0 0 0 0 0 0 0 0 0 0 0 0 0 0 0 0 0 0 0 0
0 0 0 0 0 0 0 0 0 0 0 0 0 0 0 0 0 0 0 0 0 0 0 0 0 0 0 0 0 0 0 0 0 0 0 0 0 0 0 0 0 0 0
0 0 0 0 0 0 0 0 0 0 0 0 0 0 0 0 0 0 0 0 0 0 0 0 0 0 0 0 0 0 0 0 0 0 0 0 0 0 0 0 0 0 0
0 0 0 0 0 0 0 0 0 0 0 0 0 0 0 0 0 0 0 0 0 0 0 0 0 0 0 0 0 0 0 0 0 0 0 0 0 0 0 0 0 0 0
0 0 0 0 0 0 0 0 0 0 0 0 0 0 0 0 0 0 0 0 0 0 0 0 0 0 0 0 0 0 0 0 0 0 0 0 0 0 0 0 0 0 0
0 0 0 0 0 0 0 0 0 0 0 0 0 0 0 0 0 0 0 0 0 0 0 0 0 0 0 0 0 0 0 0 0 0 0 0 0 0 0 0 0 0 0
0 0 0 0 0 0 0 0 0 0 0 0 0 0 0 0 0 0 0 0 0 0 0 0 0 0 0 0 0 0 0 0 0 0 0 0 0 0 0 0 0 0 0
0 0 0 0 0 0 0 0 0 0 0 0 0 0 0 0 0 0 0 0 0 0 0 0 0 0 0 0 0 0 0 0 0 0 0 0 0 0 0 0 0 0 0
0 0 0 0 0 0 0 0 0 0 0 0 0 0 0 0 0 0 0 0 0 0 0 0 0 0 0 0 0 0 0 0 0 0 0 0 0 0 0 0 0 0 0
0 0 0 0 0 0 0 0 0 0 0 0 0 0 0 0 0 0 0 0 0 0 0 0 0 0 0 0 0 0 0 0 0 0 0 0 0 0 0 0 0 0 0
0 0 0 0 0 0 0 0 0 0 0 0 0 0 0 0 0 0 0 0 0 0 0 0 0 0 0 0 0 0 0 0 0 0 0 0 0 0 0 0 0 0 0
0 0 0 0 0 0 0 0 0 0 0 0 0 0 0 0 0 0 0 0 0 0 0 0 0 0 0 0 0 0 0 0 0 0 0 0 0 0 0 0 0 0 0
0 0 0 0 0 0 0 0 0 0 0 0 0 0 0 0 0 0 0 0 0 0 0 0 0 0 0 0 0 0 0 0 0 0 0 0 0 0 0 0 0 0 0
Height
5832 5831 5830 5829 5828 5826 5825 5824 5822 5821 5819 5817 5816 5814 5812 5810 5808 5806 5804 5802 5800 5798 5796 5794 5791 5790 5788 5786 5785 5784 5783 5782 5781 5781 5781 5781 5782 5783 5783 5784 5785 5786 5788
5825 5824 5823 5822 5820 5819 5818 5816 5815 5813 5811 5809 5807 5806 5804 5802 5800 5797 5795 5793 5790 5788 5785 5783 5781 5778 5776 5774 5773 5771 5770 5769 5769 5768 5768 5768 5769 5770 5770 5771 5772 5774 5775
5817 5816 5815 5813 5811 5810 5809 5807 5806 5804 5802 5800 5798 5796 5794 5792 5790 5788 5785 5782 5780 5777 5774 5772 5769 5766 5764 5761 5759 5758 5757 5756 5755 5755 5754 5755 5755 5756 5757 5758 5759 5760 5762
5808 5807 5806 5804 5802 5800 5799 5798 5796 5794 5792 5790 5788 5785 5784 5782 5779 5777 5774 5771 5768 5765 5762 5759 5756 5753 5751 5748 5746 5744 5743 5741 5741 5740 5740 5740 5740 5741 5742 5743 5744 5746 5747
5798 5796 5796 5794 5792 5790 5789 5787 5785 5783 5781 5778 5776 5774 5772 5770 5767 5765 5762 5759 5756 5753 5749 5746 5743 5740 5737 5734 5731 5729 5728 5726 5726 5725 5725 5725 5725 5725 5726 5727 5728 5730 5732
5787 5786 5785 5783 5780 5779 5777 5775 5773 5771 5769 5766 5763 5762 5760 5757 5755 5752 5749 5745 5742 5739 5735 5731 5728 5725 5722 5719 5717 5714 5713 5711 5710 5709 5709 5709 5709 5709 5710 5711 5712 5713 5715
5777 5775 5773 5771 5768 5767 5765 5762 5760 5758 5756 5751 5749 5749 5747 5744 5742 5739 5734 5731 5728 5724 5720 5716 5713 5710 5707 5704 5701 5699 5697 5696 5694 5694 5693 5692 5693 5693 5694 5694 5695 5697 5698
5766 5764 5761 5759 5756 5754 5752 5750 5747 5744 5741 5738 5735 5732 5732 5732 5728 5724 5720 5717 5713 5709 5705 5701 5697 5694 5691 5688 5685 5683 5681 5680 5679 5677 5677 5676 5676 5676 5677 5677 5678 5679 5681
5755 5752 5750 5747 5744 5741 5739 5736 5732 5730 5727 5724 5720 5716 5714 5715 5713 5711 5707 5703 5698 5694 5690 5685 5681 5678 5675 5672 5669 5666 5664 5663 5662 5661 5660 5659 5659 5659 5659 5660 5660 5661 5663
5743 5740 5737 5734 5731 5728 5725 5722 5718 5715 5711 5709 5705 5702 5698 5695 5692 5692 5692 5688 5683 5678 5674 5669 5665 5661 5658 5655 5652 5650 5648 5646 5645 5643 5642 5642 5642 5641 5641 5641 5642 5643 5644
5730 5727 5724 5720 5717 5714 5711 5707 5703 5699 5696 5692 5689 5686 5682 5678 5674 5670 5671 5671 5666 5662 5657 5652 5649 5645 5641 5638 5635 5632 5630 5629 5627 5625 5624 5624 5623 5623 5622 5623 5623 5624 5624
5717 5713 5709 5706 5702 5699 5696 5691 5687 5683 5680 5676 5672 5668 5665 5661 5658 5652 5649 5649 5647 5644 5639 5635 5632 5628 5624 5620 5617 5614 5612 5611 5609 5607 5606 5605 5604 5603 5603 5603 5603 5603 5604
5703 5699 5694 5691 5687 5683 5679 5674 5670 5667 5663 5659 5655 5651 5647 5644 5640 5635 5630 5628 5625 5624 5621 5618 5615 5610 5605 5601 5598 5595 5593 5591 5589 5588 5586 5585 5584 5583 5582 5582 5582 5582 5583
5688 5683 5679 5674 5670 5666 5661 5657 5653 5650 5645 5641 5637 5633 5629 5626 5621 5616 5612 5607 5604 5604 5602 5601 5596 5591 5586 5582 5579 5575 5574 5571 5569 5567 5566 5565 5563 5563 5562 5561 5561 5561 5561
5673 5668 5663 5658 5653 5648 5644 5639 5635 5632 5627 5623 5619 5614 5610 5607 5602 5598 5593 5589 5584 5582 5584 5583 5577 5573 5566 5561 5558 5556 5554 5551 5549 5547 5545 5544 5543 5541 5540 5539 5539 5538 5538
5658 5652 5647 5641 5636 5631 5626 5621 5617 5613 5608 5605 5600 5595 5592 5588 5583 5578 5574 5570 5565 5561 5561 5564 5557 5552 5546 5542 5538 5535 5534 5531 5529 5527 5525 5523 5521 5520 5519 5517 5516 5516 5516
5642 5636 5630 5624 5619 5613 5608 5603 5599 5594 5590 5586 5581 5577 5573 5568 5563 5559 5554 5550 5546 5541 5539 5542 5536 5532 5527 5523 5518 5515 5513 5511 5509 5506 5504 5502 5500 5498 5497 5495 5494 5493 5493
5626 5619 5613 5607 5601 5595 5590 5584 5580 5575 5570 5566 5562 5557 5554 5548 5544 5540 5535 5531 5527 5522 5519 5519 5517 5512 5507 5503 5499 5495 5493 5490 5488 5486 5483 5481 5479 5476 5474 5472 5471 5469 5469
5608 5601 5595 5589 5583 5577 5571 5565 5561 5556 5551 5547 5542 5537 5534 5528 5525 5520 5515 5511 5507 5503 5499 5497 5496 5491 5487 5483 5478 5476 5472 5470 5467 5465 5462 5460 5457 5454 5452 5449 5447 5446 5444
5590 5583 5576 5569 5563 5557 5551 5546 5541 5536 5532 5528 5523 5518 5514 5509 5505 5500 5496 5492 5488 5483 5479 5476 5474 5471 5467 5462 5458 5455 5452 5449 5446 5444 5441 5438 5435 5432 5430 5427 5424 5422 5420
5569 5563 5556 5549 5543 5537 5531 5525 5521 5516 5512 5508 5503 5498 5494 5489 5485 5480 5476 5473 5468 5464 5460 5456 5453 5450 5447 5441 5437 5433 5431 5428 5426 5423 5419 5417 5413 5411 5408 5403 5400 5397 5395
5549 5542 5535 5528 5522 5516 5510 5504 5500 5496 5492 5488 5483 5478 5474 5469 5465 5461 5457 5453 5449 5445 5441 5436 5433 5430 5427 5421 5416 5412 5410 5407 5407 5404 5397 5396 5391 5390 5386 5382 5378 5374 5371
5528 5521 5513 5507 5501 5495 5488 5484 5479 5476 5473 5468 5464 5459 5455 5450 5445 5441 5437 5433 5430 5425 5422 5418 5414 5411 5406 5401 5396 5392 5389 5387 5386 5382 5377 5376 5372 5369 5365 5360 5356 5352 5348
5506 5499 5493 5486 5480 5475 5468 5464 5460 5456 5453 5449 5445 5440 5436 5432 5427 5422 5419 5416 5411 5407 5401 5397 5395 5392 5387 5381 5377 5373 5369 5367 5366 5362 5356 5354 5352 5348 5344 5341 5336 5330 5326
5485 5478 5472 5466 5460 5455 5449 5445 5441 5438 5435 5430 5426 5422 5418 5414 5409 5404 5401 5398 5394 5389 5383 5379 5375 5372 5368 5363 5358 5354 5350 5347 5346 5344 5337 5332 5331 5326 5325 5322 5316 5309 5304
5465 5459 5453 5446 5441 5436 5431 5426 5422 5420 5417 5413 5408 5404 5399 5395 5391 5386 5383 5380 5377 5372 5366 5362 5358 5354 5349 5345 5340 5336 5332 5328 5325 5324 5319 5312 5309 5304 5304 5304 5297 5290 5284
Wind_Speed
29 29 29 29 30 30 30 31 32 32 33 34 35 36 37 37 38 40 41 41 43 44 45 45 46 47 47 47 47 48 49 50 51 52 52 53 53 53 54 54 54 54 53
33 33 34 34 35 35 35 35 36 37 37 38 39 40 41 41 42 43 44 45 47 48 49 50 51 51 51 51 51 51 51 52 52 53 54 55 55 56 56 56 57 57 57
37 37 38 39 40 40 40 40 41 41 42 43 44 44 45 45 46 47 48 49 50 51 52 53 55 55 56 56 55 54 54 54 54 55 55 56 57 57 58 58 59 59 60
41 41 42 43 44 45 45 45 45 46 47 47 48 49 49 49 50 51 52 53 54 55 56 57 58 59 59 59 59 58 57 57 57 57 57 57 58 59 59 60 60 61 62
45 46 46 47 48 49 49 50 50 51 51 52 53 53 53 53 54 55 55 57 57 58 59 60 61 61 61 61 61 61 60 59 59 58 58 59 59 60 60 61 62 62 63
47 49 49 50 52 53 53 54 55 55 55 57 58 57 57 57 58 58 59 60 60 61 62 62 63 63 63 63 63 62 61 61 60 60 59 60 60 60 61 61 62 63 63
48 50 51 53 54 55 56 57 58 58 59 61 61 61 60 61 60 61 62 63 63 63 63 64 64 64 64 64 63 63 62 62 61 61 60 60 61 61 61 62 63 63 64
50 52 53 55 56 57 58 59 60 61 62 63 64 65 64 63 62 64 65 65 65 65 65 65 65 65 64 64 63 63 63 62 62 61 61 61 61 61 61 62 63 64 65
51 52 54 56 57 59 60 61 62 64 64 65 66 67 67 66 66 65 65 65 66 66 66 66 66 65 64 64 63 63 63 63 62 62 62 61 61 61 62 63 64 64 65
51 53 55 57 58 60 61 62 64 66 67 67 68 68 69 70 70 69 66 66 66 66 66 66 66 65 65 64 64 64 64 64 63 63 63 62 62 62 62 63 63 64 65
53 54 56 58 60 61 62 64 66 67 68 69 69 70 70 71 71 71 69 67 67 66 66 66 65 65 65 64 64 64 64 64 64 65 65 64 64 64 64 64 64 64 65
54 56 58 60 61 63 64 65 67 68 69 69 70 71 71 71 71 72 72 70 68 67 67 66 65 64 64 64 64 64 64 64 64 65 65 66 66 66 66 66 66 66 66
55 57 59 61 62 63 65 66 67 67 68 69 70 71 71 71 71 72 72 70 69 68 67 65 64 64 64 65 65 66 65 65 65 65 66 66 66 66 66 67 67 67 68
53 56 58 61 63 65 66 67 68 68 69 70 70 71 71 70 71 71 71 71 70 68 67 65 65 65 66 67 68 68 67 66 66 65 66 66 66 65 66 67 67 68 68
54 56 58 60 62 64 65 66 67 67 69 69 70 70 70 70 70 70 71 71 71 69 66 65 66 66 68 69 69 69 68 67 66 66 66 66 66 66 66 67 68 68 69
54 56 57 59 60 62 63 64 64 65 66 67 67 68 68 69 70 70 70 69 70 70 68 64 66 67 68 68 68 68 67 67 67 66 67 67 67 68 68 68 68 68 69
56 58 59 60 61 62 63 64 64 65 66 66 67 67 67 68 68 68 69 69 69 70 68 65 66 66 67 67 67 68 67 66 66 66 67 67 68 68 69 69 70 70 70
59 60 61 62 63 64 64 64 65 65 66 66 67 67 66 67 67 67 68 68 69 69 69 67 67 67 66 67 68 67 68 68 67 67 67 68 68 69 69 70 71 71 72
63 64 64 65 65 65 65 65 66 66 66 66 67 67 67 67 66 66 67 68 68 69 69 68 67 67 66 66 67 68 69 69 68 68 68 69 69 70 70 71 72 72 73
67 67 67 67 67 67 67 67 67 67 67 67 67 67 67 67 67 67 67 67 67 67 67 66 65 65 65 66 68 68 68 69 69 69 69 69 70 70 71 71 72 72 73
69 68 68 67 67 67 67 67 67 67 66 66 66 66 66 66 66 66 66 65 65 65 65 65 64 64 64 65 66 67 68 68 68 68 68 68 69 69 69 70 71 72 72
70 69 68 68 67 67 67 67 66 64 64 64 64 64 64 64 64 64 64 64 63 63 63 63 63 63 63 65 66 66 67 67 66 66 67 66 67 67 67 69 70 71 71
70 69 68 68 67 66 66 65 63 62 61 61 60 60 60 60 61 62 62 62 62 62 62 62 62 62 63 63 64 65 65 65 64 64 65 64 65 65 66 67 67 68 68
69 69 68 67 66 64 63 62 61 60 60 59 58 58 58 58 59 60 60 60 60 60 60 61 60 60 60 61 62 63 64 64 63 62 64 64 63 64 64 64 65 65 65
68 67 66 65 63 61 61 60 59 58 57 56 56 57 57 57 57 58 57 56 56 57 58 59 59 58 58 59 60 61 61 62 61 60 62 63 62 63 62 61 60 61 62
65 64 62 61 60 59 58 57 57 56 55 55 55 55 55 55 55 55 55 54 54 55 56 57 56 56 56 57 58 59 60 60 60 59 58 60 60 61 59 56 56 57 59
Wind_Direction
267 268 270 271 273 275 277 279 281 282 283 285 286 287 289 290 291 291 292 292 293 293 293 293 293 291 289 286 282 279 276 273 271 269 268 266 265 265 264 264 264 263 263
266 267 269 270 272 274 275 277 279 280 282 283 284 286 287 288 289 290 290 291 291 292 292 292 292 291 290 287 284 281 278 275 272 270 268 266 265 264 264 263 263 263 263
265 266 268 269 271 273 274 276 277 279 280 282 283 284 286 287 288 288 289 289 289 290 290 291 291 290 289 288 285 283 279 276 274 271 269 267 265 264 263 262 262 261 261
265 266 267 268 270 272 273 275 276 278 279 281 282 283 284 285 286 287 288 288 288 289 289 289 289 289 288 287 285 283 280 278 275 273 270 268 266 265 263 262 261 261 260
266 266 267 268 269 271 272 274 275 277 278 280 280 282 283 284 285 286 287 287 288 289 289 289 288 288 286 285 284 282 281 279 277 275 272 270 268 266 265 263 262 261 260
268 269 269 270 270 271 272 273 274 276 277 278 279 281 282 283 284 286 286 287 288 288 288 288 288 287 285 284 283 282 280 279 277 276 274 272 270 268 266 264 263 262 261
269 270 270 270 271 272 273 274 275 276 277 278 279 280 281 283 284 285 285 287 288 288 288 288 287 286 285 284 282 281 279 278 277 276 275 273 271 269 267 266 264 263 262
269 270 271 272 273 274 275 275 276 276 277 278 280 281 282 282 283 284 285 287 287 287 287 287 287 285 284 283 281 280 279 278 277 276 275 273 272 270 268 267 266 265 263
274 274 274 275 275 276 276 277 277 278 279 279 281 282 283 283 282 283 285 285 286 286 286 286 285 284 283 282 281 280 279 278 277 276 275 274 272 271 270 269 267 266 264
276 275 275 276 276 277 278 278 279 279 280 280 281 282 283 284 284 284 284 284 284 284 284 284 284 283 282 280 280 279 278 277 276 275 275 274 273 272 271 270 269 268 266
277 277 276 276 276 277 277 278 279 279 279 280 281 282 282 283 284 284 284 284 283 284 284 283 283 282 281 280 279 278 277 277 276 275 274 274 273 272 272 271 270 269 267
279 279 278 278 278 278 278 278 278 278 279 280 280 281 282 283 283 283 284 284 283 283 283 283 282 282 281 280 279 278 278 277 277 276 275 274 274 273 272 272 271 270 268
281 280 279 279 279 278 278 278 278 279 279 280 281 281 282 282 283 283 284 284 283 283 283 282 282 282 281 280 279 278 278 278 277 276 276 275 274 274 273 272 271 270 269
284 282 281 281 280 279 278 278 278 279 279 279 280 281 281 282 282 282 283 283 282 282 282 282 282 282 281 280 279 278 279 279 278 277 277 276 276 275 274 274 272 271 270
287 285 284 282 281 280 280 279 279 279 279 279 279 280 280 281 281 282 282 282 282 282 282 282 281 281 280 279 279 278 279 279 279 279 278 277 276 276 276 275 274 272 271
289 288 287 286 284 283 282 280 280 279 279 279 279 279 280 280 280 281 281 281 282 283 282 282 281 281 280 279 279 279 279 279 279 279 278 278 277 277 276 275 274 273 272
291 290 289 287 286 284 283 282 281 281 280 280 280 280 280 280 280 280 280 281 281 282 282 282 282 281 280 279 279 279 279 279 279 279 279 278 277 277 276 275 275 274 273
291 290 289 288 287 285 284 283 282 281 281 281 281 281 281 280 280 280 281 281 281 281 282 282 281 281 280 279 279 278 278 279 279 279 279 278 278 277 276 276 275 275 274
291 290 289 288 287 285 284 283 282 282 281 281 281 281 280 280 280 281 281 281 281 282 282 282 281 280 280 279 278 278 278 279 278 278 278 278 277 277 277 277 276 275 275
291 290 289 288 287 285 284 283 282 282 281 281 281 281 281 280 280 280 281 281 281 281 281 282 281 280 279 279 278 278 277 277 278 278 277 277 277 277 277 277 277 276 276
292 290 289 288 287 285 284 283 282 282 281 281 281 281 281 280 280 280 281 281 281 281 281 282 281 281 280 279 278 277 277 277 278 278 278 278 277 277 277 277 277 277 277
292 291 290 288 287 285 284 283 283 282 282 282 282 281 281 281 280 280 280 280 280 281 282 282 282 282 281 279 278 278 277 277 278 278 278 277 278 278 277 277 278 278 278
292 291 289 288 287 285 285 284 284 284 283 283 282 282 281 281 281 281 280 281 281 282 282 282 282 282 281 279 278 278 278 278 278 278 277 278 278 278 278 278 279 279 278
292 290 289 288 287 286 286 285 285 285 285 284 283 282 282 281 281 281 281 281 282 282 283 283 282 282 280 279 279 278 278 279 279 279 279 279 278 278 278 279 279 279 278
291 290 290 289 288 288 287 286 286 286 285 285 283 283 282 281 281 281 281 281 282 282 283 284 283 283 281 280 279 279 279 279 279 279 279 280 279 279 279 280 279 279 278
292 291 291 290 289 288 288 287 287 286 285 284 284 284 283 282 281 282 282 282 283 283 283 284 283 282 281 281 280 281 281 281 281 281 281 281 281 281 281 281 280 279 279